Regional Weather Roundup
Issued by NWS

Home | Current Version | Previous Version | Graphics & Text | Print | Product List | Glossary On
Versions: 1 2 3 4 5 6 7 8 9 10 11 12 13 14 15 16 17 18 19 20 21 22 23 24 25 26 27 28 29 30 31 32 33 34 35 36 37 38 39 40 41 42 43 44 45 46 47 48 49 50
000
ASUS43 KMKX 292059
RWRWI

WISCONSIN REGIONAL WEATHER ROUNDUP
NATIONAL WEATHER SERVICE MILWAUKEE/SULLIVAN WI
400 PM CDT SUN MAR 29 2015

NOTE: "FAIR" INDICATES FEW OR NO CLOUDS BELOW 12,000 FEET WITH NO
SIGNIFICANT WEATHER AND/OR OBSTRUCTIONS TO VISIBILITY.

WIZ001-002-006>008-014>016-023>028-292200-
NORTHWEST WISCONSIN

CITY           SKY/WX    TMP DP  RH WIND       PRES   REMARKS
SUPERIOR ARPT  PTSUNNY   44  32  63 NW23G41   29.66R
ASHLAND        CLOUDY    41  36  82 NW15G23   29.60R
HAYWARD        CLOUDY    39  33  79 NW12G24   29.64R WCI  32
SIREN          CLOUDY    44  33  65 NW21G33   29.69R
CUMBERLAND     CLOUDY    41  34  75 NW23G33   29.66R
RICE LAKE      CLOUDY    40  35  80 NW18G28   29.68R WCI  31
CHETEK         DRIZZLE   40  37  87 W15G23    29.66R WCI  32
LADYSMITH      CLOUDY    38  36  90 NW17G25   29.61R WCI  29
EAU CLAIRE     CLOUDY    41  36  82 NW12G21   29.67R
MENOMONIE      PTSUNNY   46  39  75 W25G31    29.67R
NEW RICHMOND   PTSUNNY   49  37  64 NW10      29.70R
OSCEOLA        MOSUNNY   50  34  55 NW20G30   29.73R
$$

WIZ003>005-009-010-017-018-292200-
NORTH CENTRAL WISCONSIN

CITY           SKY/WX    TMP DP  RH WIND       PRES   REMARKS
MANITOWISH WTR LGT SNOW  33  33 100 W12G20    29.49R VSB 1   WCI  24
ARBOR VITAE    LGT SNOW  37  35  93 NW12G18   29.49R WCI  29
WOODRUFF       LGT SNOW  37  35  93 NW12G18   29.49R WCI  29
RHINELANDER    LGT SNOW  34  32  92 W17       29.50R FOG     WCI  23
EAGLE RIVER    LGT SNOW  33  31  90 W13G21    29.46R WCI  24
LAND O LAKES   LGT SNOW  34  33  94 W12       29.46R WCI  25
PHILLIPS       LGT RAIN  33  32  95 W10G20    29.54R WCI  25
TOMAHAWK       RAIN      34  32  92 W14       29.52R WCI  25
MEDFORD        RAIN      36  33  90 NW16G24   29.56R WCI  26
MERRILL        LGT RAIN  35  35  99 W13       29.52R WCI  27
$$

WIZ029-030-035-036-043>047-292200-
CENTRAL WISCONSIN

CITY           SKY/WX    TMP DP  RH WIND       PRES   REMARKS
WAUSAU         LGT RAIN  39  37  92 W18G25    29.52R WCI  30
MOSINEE        CLOUDY    36  36 100 W5G22     29.55R FOG     WCI  32
MARSHFIELD     LGT RAIN  40  36  86 NW26G38   29.60R WCI  29
STEVENS POINT  LGT RAIN  36  35  97 SW12      29.55S WCI  28
WAUPACA        CLOUDY    39  35  85 SW15      29.56F FOG     WCI  31
WAUTOMA        CLOUDY    37  37 100 SW13      29.60S FOG     WCI  29
WISC RAPIDS    LGT RAIN  41  37  86 W16G28    29.59R
CAMP DOUGLAS   CLOUDY    43  43 100 W22G29    29.61R
$$

WIZ011>013-019>022-031-037>040-048>050-292200-
NORTHEAST WISCONSIN

CITY           SKY/WX    TMP DP  RH WIND       PRES   REMARKS
ANTIGO         LGT SNOW  32  32  99 W9        29.50R WCI  24
SHAWANO        CLOUDY    37  35  91 SW8       29.53F FOG     WCI  31
OCONTO         CLOUDY    34  34 100 SW10G18   29.54F WCI  26
STURGEON BAY   CLOUDY    34  30  86 SW17G24   29.56F WCI  23
GREEN BAY      CLOUDY    36  33  89 SW14G22   29.56F FOG     WCI  27
MANITOWOC      NOT AVBL
APPLETON       CLOUDY    36  34  93 SW18G25   29.57F WCI  25
CLINTONVILLE   LGT RAIN  36  34  93 SW13G18   29.54F WCI  27
OSHKOSH        CLOUDY    36  32  85 SW18G26   29.58F FOG     WCI  26
$$

WIZ032>034-041-042-053>061-292200-
SOUTHWEST WISCONSIN

CITY           SKY/WX    TMP DP  RH WIND       PRES   REMARKS
LA CROSSE      CLOUDY    46  36  68 NW21G31   29.72R
SPARTA         CLOUDY    44  37  76 W20G35    29.67R
VIROQUA        CLOUDY    42  37  80 NW26G35   29.68R
BOSCOBEL       CLOUDY    48  36  63 W13G35    29.74R
PRAIRIE DU CHI CLOUDY    45  35  68 W20G29    29.76R
PLATTEVILLE    CLOUDY    47  43  84 SW14G25   29.71R
$$

WIZ056-057-062-063-064-067-068-292200-
SOUTH CENTRAL WISCONSIN

CITY           SKY/WX    TMP DP  RH WIND       PRES   REMARKS
REEDSBURG      CLOUDY    40  39  95 SW9       29.64R FOG     WCI  34
BARABOO/DELLS  LGT RAIN  38  36  90 SW13G22   29.62R WCI  31
LONE ROCK      NOT AVBL
MINERAL POINT  CLOUDY    45  41  87 SW29G40   29.68R
MADISON        CLOUDY    40  35  83 S10G18    29.66F WCI  33
MIDDLETON      CLOUDY    42  37  82 SW16G25   29.65F
WATERTOWN      CLOUDY    37  35  92 S18G28    29.66F WCI  27
MONROE         CLOUDY    41  37  87 SW24G30   29.68F
JANESVILLE     CLOUDY    43  37  81 S17G25    29.70F
$$

WIZ051-052-058>065-066-070>072-292200-
SOUTHEAST WISCONSIN

CITY           SKY/WX    TMP DP  RH WIND       PRES   REMARKS
MILWAUKEE      CLOUDY    39  29  67 SW26G35   29.71F WCI  28
WAUKESHA       CLOUDY    36  30  80 S17G35    29.70F WCI  25
MILWAUKEE/TIMM CLOUDY    37  30  75 SW17G35   29.71F WCI  28
RACINE         CLOUDY    40  30  67 SW18G29   29.74F WCI  31
BURLINGTON     CLOUDY    36  31  83 SW25G32   29.73F WCI  24
KENOSHA        CLOUDY    39  31  72 SW18G31   29.74F WCI  30
FOND DU LAC    LGT RAIN  36  32  85 SW20G31   29.61F FOG     WCI  25
SHEBOYGAN      CLOUDY    37  32  82 SW24G33   29.62F WCI  26
WEST BEND      CLOUDY    36  32  87 SW22G31   29.66F WCI  24
JUNEAU         CLOUDY    35  32  90 S17G28    29.66F WCI  25
$$

LSZ147-162-292200-
LAKE SUPERIOR

STATION/POSITION TIME  TEMP    WIND        PRES    WAVE
                       AIR SEA DIR/SP/G            HT/PER
                 (UTC) (F)     (DEG/KT/KT) (MB)    (FT/S)
DEVILS ISLAND    2000   37     280/ 16/ 18 1000.4R
PORT WING        2000   38     290/ 18/ 24 1002.0R
SAXON HARBOR     2040   38     270/ 11/ 24 1001.4R
$$

LMZ867-665-643>646-292200-
LAKE MICHIGAN

STATION/POSITION TIME  TEMP    WIND        PRES    WAVE
                       AIR SEA DIR/SP/G            HT/PER
                 (UTC) (F)     (DEG/KT/KT) (MB)    (FT/S)
KEWAUNEE LAKESHO 2000   35     210/ 16/ 23 1001.9
SHEBOYGAN LAKESH 2000   36     220/ 27/ 30 1005.0F
PORT WASHINGTON  2000   37     230/ 12/ 23 1006.4F
MILWAUKEE LAKESH 2000   37     220/ 23/ 29   N/A
KENOSHA   LAKESH 2000   38     210/ 20/ 30 1008.5F
$$

TC  - TEMPERATURE IN CELSIUS
VSB - VISIBILITY IN STATUTE MILES
WCI - WIND CHILL INDEX
HX  - HEAT INDEX




USA.gov is the U.S. government's official web portal to all federal, state and local government web resources and services.